Weather History for Mansfield, OH

Change the Weather History Date:

Thursday, May 16, 2013

  Actual Average Record
Temperature  
Mean Temperature 66 °F 59 °F  
Max Temperature 79 °F 69 °F 89 °F (1962)
Min Temperature 52 °F 48 °F 25 °F (1959)
Degree Days  
Heating Degree Days 0 7  
Month to date heating degree days 86 147  
Since 1 July heating degree days 5914 6132  
Cooling Degree Days 1 1  
Month to date cooling degree days 14 11  
Year to date cooling degree days 20 19  
Growing Degree Days 16 (Base 50)    
Moisture  
Dew Point 48 °F    
Average Humidity 63    
Maximum Humidity 100    
Minimum Humidity 25    
Precipitation  
Precipitation 0.13 in 0.14 in 0.81 in (2007)
Month to date precipitation 1.27 2.19  
Year to date precipitation 12.74 14.98  
Snow  
Snow 0.00 in 0.00 in - ()
Month to date snowfall 0.0 0.0  
Since 1 July snowfall 39.4 48.3  
Snow Depth 0.00 in    
Sea Level Pressure  
Sea Level Pressure 29.90 in    
Wind  
Wind Speed 4 mph (SW)    
Max Wind Speed 14 mph    
Max Gust Speed 18 mph    
Visibility 10 miles    
Events Rain , Thunderstorm    
T = Trace of Precipitation, MM = Missing Value Source: NWS Daily Summary

Daily Weather History Graph

Daily Weather History Graph

Search for Another Location

Airport:

Trip Planner

Search our weather history database for the weather conditions in past years. The results will help you decide how hot, cold, wet, or windy it might be!

Date:

Astronomy

May. 16, 2013 Rise Set
Actual Time 6:11 AM EDT 8:41 PM EDT
Civil Twilight 5:40 AM EDT 9:13 PM EDT
Nautical Twilight 5:01 AM EDT 9:52 PM EDT
Astronomical Twilight 4:18 AM EDT 10:36 PM EDT
Moon 11:44 AM EDT (5/16) 1:01 AM EDT (5/16)
Length of Visible Light 15h 32m
Length of Day
14h 30m
Waxing Crescent, 35% of the Moon is Illuminated
May 16
Waxing Crescent
May 18
First Quarter
May 25
Full
May 31
Last Quarter
Jun 8
New

Hourly Weather History & Observations

Time (EDT) Temp. Dew Point Humidity Pressure Visibility Wind Dir Wind Speed Gust Speed Precip Events Conditions
12:52 AM 63.0 °F 54.0 °F 72% 29.80 in 10.0 mi SSW 6.9 mph - N/A   Overcast
1:19 AM 62.6 °F 55.4 °F 77% 29.84 in 9.0 mi SW 8.1 mph - 0.02 in Rain , Thunderstorm Light Thunderstorms and Rain
1:52 AM 61.0 °F 55.0 °F 81% 29.81 in 10.0 mi SSW 9.2 mph - 0.13 in Thunderstorm Overcast
2:30 AM 60.8 °F 55.4 °F 82% 29.85 in 10.0 mi SW 5.8 mph - N/A   Overcast
2:52 AM 60.1 °F 55.9 °F 86% 29.80 in 10.0 mi SW 5.8 mph - 0.00 in   Mostly Cloudy
3:52 AM 62.1 °F 52.0 °F 70% 29.81 in 10.0 mi West 6.9 mph - N/A   Scattered Clouds
4:52 AM 59.0 °F 53.1 °F 81% 29.83 in 10.0 mi West 4.6 mph - N/A   Clear
5:52 AM 55.9 °F 52.0 °F 87% 29.83 in 10.0 mi NW 3.5 mph - N/A   Clear
6:52 AM 54.0 °F 53.1 °F 97% 29.87 in 10.0 mi Calm Calm - N/A   Clear
7:52 AM 62.1 °F 51.1 °F 67% 29.88 in 10.0 mi NW 3.5 mph - N/A   Clear
8:52 AM 66.0 °F 48.9 °F 54% 29.89 in 10.0 mi NW 4.6 mph - N/A   Clear
9:52 AM 69.1 °F 46.0 °F 44% 29.91 in 10.0 mi North 3.5 mph - N/A   Clear
10:52 AM 69.1 °F 48.0 °F 47% 29.93 in 10.0 mi SSW 4.6 mph - N/A   Clear
11:52 AM 72.0 °F 46.9 °F 41% 29.93 in 10.0 mi Variable 4.6 mph - N/A   Partly Cloudy
12:52 PM 73.0 °F 48.0 °F 41% 29.93 in 10.0 mi NW 4.6 mph - N/A   Partly Cloudy
1:52 PM 75.0 °F 46.9 °F 37% 29.94 in 10.0 mi SSW 3.5 mph - N/A   Clear
2:52 PM 75.9 °F 42.1 °F 30% 29.93 in 10.0 mi South 4.6 mph - N/A   Clear
3:52 PM 77.0 °F 42.1 °F 29% 29.93 in 10.0 mi SSW 3.5 mph - N/A   Clear
4:52 PM 77.0 °F 41.0 °F 28% 29.93 in 10.0 mi Calm Calm - N/A   Clear
5:52 PM 78.1 °F 39.9 °F 25% 29.93 in 10.0 mi Calm Calm - N/A   Clear
6:52 PM 77.0 °F 41.0 °F 28% 29.93 in 10.0 mi Variable 4.6 mph - N/A   Clear
7:52 PM 72.0 °F 46.0 °F 40% 29.93 in 10.0 mi SSW 6.9 mph - N/A   Clear
8:52 PM 66.0 °F 44.1 °F 45% 29.95 in 10.0 mi South 5.8 mph - N/A   Clear
9:52 PM 64.0 °F 44.1 °F 48% 29.96 in 10.0 mi South 4.6 mph - N/A   Clear
10:52 PM 64.0 °F 44.1 °F 48% 29.98 in 10.0 mi SSW 3.5 mph - N/A   Clear
11:52 PM 60.1 °F 48.0 °F 64% 29.97 in 10.0 mi South 5.8 mph - N/A   Clear